Yakima, WA

5:31 PM PDT on June 23, 2018 (GMT -0700)
Yakima Air Term-McAllister

Weather History for KYKM - November, 2017

Change the Weather History Date:

Wednesday, November 1, 2017

  Actual Average Record
Temperature  
Mean Temperature 47 °F 43 °F  
Max Temperature 64 °F 56 °F 68 °F (1949)
Min Temperature 30 °F 30 °F 6 °F (2002)
Degree Days  
Heating Degree Days 18 22  
Month to date heating degree days 18 22  
Since 1 July heating degree days 579 726  
Cooling Degree Days 0 0  
Month to date cooling degree days 0 0  
Year to date cooling degree days 1054 472  
Moisture  
Dew Point 32 °F    
Average Humidity 58    
Maximum Humidity 85    
Minimum Humidity 30    
Precipitation  
Precipitation 0.00 in 0.03 in 0.36 in (2005)
Month to date precipitation 0.00 0.03  
Year to date precipitation 8.74 5.70  
Snow  
Snow 0.00 in 0.00 in 0.30 in (1984)
Year to date snowfall 29.1 8.7  
Since 1 July snowfall 0.0 0.1  
Snow Depth 0.00 in    
Sea Level Pressure  
Sea Level Pressure 29.71 in    
Wind  
Wind Speed 8 mph (WNW)    
Max Wind Speed 25 mph    
Max Gust Speed 33 mph    
Visibility 10 miles    
Events      
T = Trace of Precipitation, MM = Missing Value Source: NWS Daily Summary

Daily Weather History Graph

Daily Weather History Graph

Search for Another Location

Airport or City:

Astronomy

Nov. 01, 2017 Rise Set
Actual Time 7:44 AM PDT 5:46 PM PDT
Civil Twilight 7:12 AM PDT 6:17 PM PDT
Nautical Twilight 6:37 AM PDT 6:53 PM PDT
Astronomical Twilight 6:01 AM PDT 7:28 PM PDT
Moon 4:58 PM PDT (11/1) 4:24 AM PDT (11/1)
Length of Visible Light 11h 05m
Length of Day
10h 01m
Waxing Gibbous, 92% of the Moon is Illuminated
Nov 1
Waxing Gibbous
Nov 3
Full
Nov 10
Last Quarter
Nov 18
New
Nov 26
First Quarter

Hourly Weather History & Observations

Time (PDT) Temp. Windchill Dew Point Humidity Pressure Visibility Wind Dir Wind Speed Gust Speed Precip Events Conditions
12:53 AM 35.1 °F 31.0 °F 28.0 °F 76% 29.65 in 10.0 mi South 4.6 mph - N/A   Clear
1:53 AM 37.0 °F 32.4 °F 28.0 °F 70% 29.64 in 10.0 mi East 5.8 mph - N/A   Clear
2:53 AM 39.0 °F 36.8 °F 28.9 °F 67% 29.65 in 10.0 mi Variable 3.5 mph - N/A   Clear
3:53 AM 39.9 °F 34.5 °F 28.9 °F 65% 29.64 in 10.0 mi SE 8.1 mph - N/A   Clear
4:53 AM 43.0 °F 38.8 °F 30.9 °F 62% 29.63 in 10.0 mi East 6.9 mph - N/A   Clear
5:53 AM 39.9 °F 36.7 °F 30.9 °F 70% 29.64 in 10.0 mi NE 4.6 mph - N/A   Clear
6:53 AM 57.9 °F - 27.0 °F 31% 29.62 in 10.0 mi WNW 19.6 mph 27.6 mph 0.01 in   Clear
7:53 AM 57.0 °F - 28.0 °F 33% 29.65 in 10.0 mi WNW 17.3 mph 31.1 mph N/A   Clear
8:53 AM 57.9 °F - 28.0 °F 32% 29.67 in 10.0 mi NW 13.8 mph 24.2 mph N/A   Clear
9:53 AM 54.0 °F - 37.9 °F 55% 29.70 in 10.0 mi East 6.9 mph - N/A   Clear
10:53 AM 57.0 °F - 37.0 °F 47% 29.72 in 10.0 mi Calm Calm - N/A   Clear
11:53 AM 62.1 °F - 33.1 °F 34% 29.72 in 10.0 mi NE 4.6 mph - N/A   Clear
12:53 PM 62.1 °F - 32.0 °F 32% 29.72 in 10.0 mi Variable 6.9 mph 16.1 mph N/A   Overcast
1:53 PM 62.1 °F - 32.0 °F 32% 29.71 in 10.0 mi West 17.3 mph 29.9 mph N/A   Clear
2:53 PM 61.0 °F - 33.1 °F 35% 29.71 in 10.0 mi West 17.3 mph 26.5 mph N/A   Clear
3:53 PM 57.9 °F - 33.1 °F 39% 29.73 in 10.0 mi West 10.4 mph - N/A   Mostly Cloudy
4:53 PM 55.9 °F - 34.0 °F 44% 29.74 in 10.0 mi West 9.2 mph - N/A   Scattered Clouds
5:53 PM 52.0 °F - 34.0 °F 50% 29.77 in 10.0 mi NW 9.2 mph - N/A   Partly Cloudy
6:53 PM 51.1 °F - 34.0 °F 52% 29.76 in 10.0 mi NW 6.9 mph - N/A   Scattered Clouds
7:53 PM 46.9 °F - 33.1 °F 59% 29.78 in 10.0 mi West 3.5 mph - N/A   Scattered Clouds
8:53 PM 42.1 °F 37.7 °F 32.0 °F 67% 29.77 in 10.0 mi West 6.9 mph - N/A   Clear
9:53 PM 39.9 °F 36.7 °F 32.0 °F 73% 29.79 in 10.0 mi WSW 4.6 mph - N/A   Clear
10:53 PM 36.0 °F 33.3 °F 30.0 °F 79% 29.79 in 10.0 mi Variable 3.5 mph - N/A   Clear
11:53 PM 32.0 °F 26.4 °F 28.0 °F 85% 29.79 in 10.0 mi WNW 5.8 mph - N/A   Clear